7 * 24
多渠道服务支持
STARLINK-37180(NORAD编号68333)是美国SpaceX公司星链(Starlink)星座的一颗低轨通信卫星,归属星链第二代mini批次生产,运行于距地约550公里近地轨道。 作为全球最大规模卫星互联网系统的组成单元,该星配备相控阵天线与激光星间链路,搭载氩气离子推进系统实现轨道机动,依托多波束设计提供低延迟高带宽通信服务,可同时连接大量地面终端,支撑全球全域互联网接入。 它也延续了星链卫星4-5年设计寿命,到期后将受控离轨,由新一代卫星迭代替代。
美国
(US)
| 数据来源 | 国际轨道数据 |
| 星历时间: | 2026-06-10T08:19:41+0800 11小时前 查看轨道信息 |
| 半长轴: | 6840.801km |
| 偏心率: | 0.0001119 |
| 轨道倾角: | 53.158° |
| 近地点辐角 | 103.033° |
| 升交点赤经 | 274.983° |
| 平近点角 | 257.079° |
| 近地点: | 461.898km |
| 远地点: | 463.43km |
| 周期: | 93.847分钟 |
| 每日圈数: | 15.344133 |